星链-31763 (STARLINK-31763 )

导读 | 豆包AI

STARLINK-31763是美国太空探索技术公司Starlink卫星互联网项目的卫星,于北京时间2024年4月28日8时发射。该卫星属于星链星座组网卫星,旨在为全球提供高速低延迟互联网服务,尤其覆盖偏远地区,是Starlink低轨卫星互联网部署中的一员,进一步扩充了星链星座的卫星规模与服务覆盖能力。

基本信息
目录编号:
59623
目录名称:
STARLINK-31763
国际标识:
2024-080Y
轨道中心:
EARTH
卫星名称:
星链-31763
卫星全名:
星链-31763 (STARLINK-31763 )
卫星状态:
在轨 (已飞行686 天)
发射日期:
2024-04-28 UTC
国别 :
美国 (US)
星等 :
--
轨道信息
数据来源 国际轨道数据
星历时间: 2026-03-15T10:05:26+0800
18小时前
查看轨道信息
半长轴: 6861.168km
偏心率: 0.0001422
轨道倾角: 43.004°
近地点辐角 263.924°
升交点赤经 7.810°
平近点角 96.145°
近地点: 482.055km
远地点: 484.007km
周期: 94.266分钟
每日圈数: 15.275862
详细信息
固有亮度:
5
最大亮度:
1.5
卫星平台:
Starlink v2.0 mini
覆盖范围:
全球
运营商:
太空探索技术公司
运营商所在国:
美国
制造商(研发单位):
太空探索技术公司
制造商所在国:
美国
使用方式:
暂无
卫星简介
星链(Starlink)计划是由太空探索技术公司(SpaceX)提出的一个巨型低轨卫星互联网星座项目,计划在2019年至2024年间在太空搭建由约1.2万颗卫星组成的“星链”网络,其中1584颗将部署在地球上空550千米处的近地轨道,并从2020年开始工作。该卫星仍在工作。
2D轨道图
3D轨道图
轨道高度分析图
轨道倾角分析图
轨道综合分析图
查看轨道综合分析图